Location: Frankfurt am Main
(50.1109°N, 8.6821°E)
Time: 13:03:55
(UTC+01:00)

ISS - Pass Details

Date: 03 November 2021
Orbit: 417 x 422 km, 51.6° (Epoch: 07 December)

Event Time Altitude Azimuth Distance (km) Brightness Sun altitude
Exits shadow 06:18:38 15° 283° (WNW) 1,231 -2.1 -10.0°
Maximum altitude 06:21:19 70° 201° (SSW) 450 -3.7 -9.6°
Drops below altitude 10° 06:24:39 10° 118° (ESE) 1,494 0.5 -9.1°
Sets 06:26:44 0° 116° (ESE) 2,355 2.0 -8.7°
